Regional Weather Roundup
Issued by NWS

Home | Current Version | Previous Version | Text Only | Print | Product List | Glossary On
Versions: 1 2 3 4 5 6 7 8 9 10 11 12 13 14 15 16 17 18 19 20 21 22 23 24 25 26 27 28 29 30 31 32 33 34 35 36 37 38 39 40 41 42 43 44 45 46 47 48 49
000
ASUS46 KPQR 202010
RWROR

OREGON REGIONAL WEATHER ROUNDUP
NATIONAL WEATHER SERVICE PORTLAND OR
1200 PM PST SAT DEC 20 2014

NOTE: "FAIR" INDICATES FEW OR NO CLOUDS BELOW 12,000 FEET WITH
NO SIGNIFICANT WEATHER AND/OR OBSTRUCTIONS TO VISIBILITY.

ORZ001>013-202100-
NORTHWEST OREGON


CITY           SKY/WX    TMP DP  RH WIND       PRES   REMARKS
ASTORIA        LGT RAIN  56  54  93 SW15G24   29.56F FOG
NEWPORT        LGT RAIN  55  55 100 SW24G31   29.74R
PORTLAND       LGT RAIN  46  45  96 E14       29.69F
VANCOUVER WA   LGT RAIN  48  45  89 SE9       29.68F FOG
SCAPPOOSE      LGT RAIN  50  48  93 SE9       29.66F FOG
HILLSBORO      LGT RAIN  50  48  93 S16G25    29.66F FOG
AURORA         RAIN      51  49  92 S13G22    29.69F
MCMINNVILLE    RAIN      52  48  86 S14G23    29.68F FOG
SALEM          LGT RAIN  52  48  86 S23G36    29.69F
CORVALLIS      CLOUDY    54  48  82 S18       29.73F
EUGENE         RAIN      51  48  89 S16       29.78R FOG
$$

ORZ021-028-202100-
SOUTHWEST OREGON


CITY           SKY/WX    TMP DP  RH WIND       PRES   REMARKS
NORTH BEND     CLOUDY    57  55  94 S21G37    29.80F
BROOKINGS      RAIN      53  53 100 S15G25    29.98F VSB 3/4
ROSEBURG       LGT RAIN  53  49  86 S9        29.84S
SEXTON SUMMIT  FOG       42  42 100 S17G31    29.88R VSB<1/4
MEDFORD        CLOUDY    47  45  93 CALM      29.92F
$$

ORZ014>016-041-202100-
COLUMBIA GORGE


CITY           SKY/WX    TMP DP  RH WIND       PRES   REMARKS
TROUTDALE      LGT RAIN  45  42  89 E15       29.69F
THE DALLES     LGT RAIN  43  41  93 CALM      29.75F
$$

ORZ029>031-041-044-049-050-061>064-502-503-505>511-202100-
EASTERN OREGON


CITY           SKY/WX    TMP DP  RH WIND       PRES   REMARKS
REDMOND        LGT RAIN  43  36  76 S21G32    29.80R
BEND           LGT RAIN  39  36  87 S12G17    29.82R WCI  32
PRINEVILLE     MIX PCPN  43  39  87 SE8       29.82F
KLAMATH FALLS  LGT RAIN  42  38  85 CALM      29.96F
LAKEVIEW       CLOUDY    37  34  87 S18G24    30.00F WCI  27
HERMISTON      CLOUDY    54  41  61 SW12G20   29.74F
PENDLETON      LGT RAIN  48  40  73 S6        29.76F
JOHN DAY       LGT RAIN  42  36  80 S18G25    29.86F
MEACHAM        LGT RAIN  36  34  92 CALM      29.80F FOG
LA GRANDE      CLOUDY    43  32  65 S12       29.84F
BAKER CITY     CLOUDY    39  36  89 SE16      29.86F WCI  30
BURNS          LGT RAIN  36  33  89 S9        29.93F WCI  29
ROME             N/A     43  34  70 S18       29.94F
ONTARIO        LGT RAIN  44  41  89 E3        29.97F
$$


USA.gov is the U.S. government's official web portal to all federal, state and local government web resources and services.